﻿測定場所 (Monitoring sites),日付 (Measurement date),時間 (Measurement time),線量率 最大値 (max) μGy/h,線量率 最小値 (min) μGy/h,線量率 平均値 (average) μGy/h,
大田 (Ota),2014-08-03,23:01～24:00,0.0474,0.0406,0.0436,
大田 (Ota),2014-08-03,22:01～23:00,0.0478,0.0413,0.0437,
大田 (Ota),2014-08-03,21:01～22:00,0.0468,0.0409,0.0438,
大田 (Ota),2014-08-03,20:01～21:00,0.0466,0.0414,0.0438,
大田 (Ota),2014-08-03,19:01～20:00,0.0471,0.0401,0.0436,
大田 (Ota),2014-08-03,18:01～19:00,0.0478,0.0401,0.0437,
大田 (Ota),2014-08-03,17:01～18:00,0.0464,0.0411,0.0435,
大田 (Ota),2014-08-03,16:01～17:00,0.0481,0.0395,0.0435,
大田 (Ota),2014-08-03,15:01～16:00,0.0476,0.0409,0.0438,
大田 (Ota),2014-08-03,14:01～15:00,0.0468,0.0394,0.0433,
大田 (Ota),2014-08-03,13:01～14:00,0.0469,0.0394,0.0439,
大田 (Ota),2014-08-03,12:01～13:00,0.0462,0.0410,0.0434,
大田 (Ota),2014-08-03,11:01～12:00,0.0474,0.0396,0.0437,
大田 (Ota),2014-08-03,10:01～11:00,0.0477,0.0408,0.0443,
大田 (Ota),2014-08-03,09:01～10:00,0.0477,0.0399,0.0446,
大田 (Ota),2014-08-03,08:01～09:00,0.0476,0.0419,0.0451,
大田 (Ota),2014-08-03,07:01～08:00,0.0482,0.0423,0.0446,
大田 (Ota),2014-08-03,06:01～07:00,0.0493,0.0422,0.0451,
大田 (Ota),2014-08-03,05:01～06:00,0.0483,0.0416,0.0453,
大田 (Ota),2014-08-03,04:01～05:00,0.0484,0.0411,0.0444,
大田 (Ota),2014-08-03,03:01～04:00,0.0478,0.0407,0.0439,
大田 (Ota),2014-08-03,02:01～03:00,0.0471,0.0400,0.0436,
大田 (Ota),2014-08-03,01:01～02:00,0.0467,0.0407,0.0437,
大田 (Ota),2014-08-03,00:01～01:00,0.0472,0.0402,0.0436,
大田 (Ota),2014-08-02,23:01～24:00,0.0468,0.0403,0.0434,
大田 (Ota),2014-08-02,22:01～23:00,0.0466,0.0401,0.0434,
大田 (Ota),2014-08-02,21:01～22:00,0.0474,0.0408,0.0436,
大田 (Ota),2014-08-02,20:01～21:00,0.0481,0.0398,0.0435,
大田 (Ota),2014-08-02,19:01～20:00,0.0491,0.0409,0.0436,
大田 (Ota),2014-08-02,18:01～19:00,0.0477,0.0382,0.0435,
大田 (Ota),2014-08-02,17:01～18:00,0.0483,0.0405,0.0436,
大田 (Ota),2014-08-02,16:01～17:00,0.0472,0.0405,0.0437,
大田 (Ota),2014-08-02,15:01～16:00,0.0465,0.0402,0.0439,
大田 (Ota),2014-08-02,14:01～15:00,0.0467,0.0405,0.0439,
大田 (Ota),2014-08-02,13:01～14:00,0.0469,0.0412,0.0438,
大田 (Ota),2014-08-02,12:01～13:00,0.0491,0.0406,0.0439,
大田 (Ota),2014-08-02,11:01～12:00,0.0477,0.0414,0.0439,
大田 (Ota),2014-08-02,10:01～11:00,0.0475,0.0406,0.0436,
大田 (Ota),2014-08-02,09:01～10:00,0.0468,0.0396,0.0434,
大田 (Ota),2014-08-02,08:01～09:00,0.0472,0.0407,0.0438,
大田 (Ota),2014-08-02,07:01～08:00,0.0461,0.0402,0.0432,
大田 (Ota),2014-08-02,06:01～07:00,0.0465,0.0406,0.0435,
大田 (Ota),2014-08-02,05:01～06:00,0.0469,0.0393,0.0434,
大田 (Ota),2014-08-02,04:01～05:00,0.0461,0.0397,0.0433,
大田 (Ota),2014-08-02,03:01～04:00,0.0471,0.0415,0.0439,
大田 (Ota),2014-08-02,02:01～03:00,0.0459,0.0405,0.0435,
大田 (Ota),2014-08-02,01:01～02:00,0.0478,0.0412,0.0441,
大田 (Ota),2014-08-02,00:01～01:00,0.0463,0.0410,0.0441,
大田 (Ota),2014-08-01,23:01～24:00,0.0498,0.0401,0.0456,
大田 (Ota),2014-08-01,22:01～23:00,0.0549,0.0444,0.0490,
大田 (Ota),2014-08-01,21:01～22:00,0.0524,0.0423,0.0473,
大田 (Ota),2014-08-01,20:01～21:00,0.0454,0.0392,0.0432,
大田 (Ota),2014-08-01,19:01～20:00,0.0474,0.0398,0.0431,
大田 (Ota),2014-08-01,18:01～19:00,0.0473,0.0392,0.0432,
大田 (Ota),2014-08-01,17:01～18:00,0.0463,0.0402,0.0433,
大田 (Ota),2014-08-01,16:01～17:00,0.0462,0.0397,0.0432,
大田 (Ota),2014-08-01,15:01～16:00,0.0476,0.0399,0.0436,
大田 (Ota),2014-08-01,14:01～15:00,0.0463,0.0396,0.0431,
大田 (Ota),2014-08-01,13:01～14:00,0.0459,0.0409,0.0431,
大田 (Ota),2014-08-01,12:01～13:00,0.0466,0.0383,0.0433,
大田 (Ota),2014-08-01,11:01～12:00,0.0472,0.0402,0.0437,
大田 (Ota),2014-08-01,10:01～11:00,0.0468,0.0406,0.0435,
大田 (Ota),2014-08-01,09:01～10:00,0.0466,0.0397,0.0433,
大田 (Ota),2014-08-01,08:01～09:00,0.0469,0.0406,0.0438,
大田 (Ota),2014-08-01,07:01～08:00,0.0466,0.0408,0.0435,
大田 (Ota),2014-08-01,06:01～07:00,0.0460,0.0392,0.0433,
大田 (Ota),2014-08-01,05:01～06:00,0.0469,0.0406,0.0434,
大田 (Ota),2014-08-01,04:01～05:00,0.0477,0.0404,0.0435,
大田 (Ota),2014-08-01,03:01～04:00,0.0466,0.0402,0.0432,
大田 (Ota),2014-08-01,02:01～03:00,0.0458,0.0397,0.0434,
大田 (Ota),2014-08-01,01:01～02:00,0.0468,0.0398,0.0433,
大田 (Ota),2014-08-01,00:01～01:00,0.0470,0.0407,0.0433,
大田 (Ota),2014-07-31,23:01～24:00,0.0479,0.0403,0.0434,
大田 (Ota),2014-07-31,22:01～23:00,0.0454,0.0402,0.0431,
大田 (Ota),2014-07-31,21:01～22:00,0.0469,0.0394,0.0433,
大田 (Ota),2014-07-31,20:01～21:00,0.0461,0.0401,0.0433,
大田 (Ota),2014-07-31,19:01～20:00,0.0475,0.0401,0.0432,
大田 (Ota),2014-07-31,18:01～19:00,0.0467,0.0403,0.0433,
大田 (Ota),2014-07-31,17:01～18:00,0.0464,0.0390,0.0432,
大田 (Ota),2014-07-31,16:01～17:00,0.0460,0.0405,0.0432,
大田 (Ota),2014-07-31,15:01～16:00,0.0473,0.0406,0.0436,
大田 (Ota),2014-07-31,14:01～15:00,0.0471,0.0402,0.0434,
大田 (Ota),2014-07-31,13:01～14:00,0.0468,0.0400,0.0438,
大田 (Ota),2014-07-31,12:01～13:00,0.0464,0.0407,0.0433,
大田 (Ota),2014-07-31,11:01～12:00,0.0460,0.0405,0.0429,
大田 (Ota),2014-07-31,10:01～11:00,0.0485,0.0400,0.0436,
大田 (Ota),2014-07-31,09:01～10:00,0.0462,0.0398,0.0433,
大田 (Ota),2014-07-31,08:01～09:00,0.0466,0.0400,0.0434,
大田 (Ota),2014-07-31,07:01～08:00,0.0454,0.0401,0.0430,
大田 (Ota),2014-07-31,06:01～07:00,0.0460,0.0413,0.0436,
大田 (Ota),2014-07-31,05:01～06:00,0.0461,0.0401,0.0430,
大田 (Ota),2014-07-31,04:01～05:00,0.0469,0.0410,0.0435,
大田 (Ota),2014-07-31,03:01～04:00,0.0471,0.0410,0.0435,
大田 (Ota),2014-07-31,02:01～03:00,0.0461,0.0408,0.0436,
大田 (Ota),2014-07-31,01:01～02:00,0.0462,0.0399,0.0434,
大田 (Ota),2014-07-31,00:01～01:00,0.0470,0.0398,0.0431,
大田 (Ota),2014-07-30,23:01～24:00,0.0454,0.0409,0.0433,
大田 (Ota),2014-07-30,22:01～23:00,0.0469,0.0401,0.0438,
大田 (Ota),2014-07-30,21:01～22:00,0.0469,0.0393,0.0433,
大田 (Ota),2014-07-30,20:01～21:00,0.0469,0.0409,0.0435,
大田 (Ota),2014-07-30,19:01～20:00,0.0468,0.0404,0.0437,
大田 (Ota),2014-07-30,18:01～19:00,0.0462,0.0415,0.0436,
大田 (Ota),2014-07-30,17:01～18:00,0.0472,0.0406,0.0436,
大田 (Ota),2014-07-30,16:01～17:00,0.0465,0.0402,0.0437,
大田 (Ota),2014-07-30,15:01～16:00,0.0468,0.0400,0.0435,
大田 (Ota),2014-07-30,14:01～15:00,0.0463,0.0402,0.0432,
大田 (Ota),2014-07-30,13:01～14:00,0.0460,0.0401,0.0434,
大田 (Ota),2014-07-30,12:01～13:00,0.0467,0.0397,0.0431,
大田 (Ota),2014-07-30,11:01～12:00,0.0469,0.0400,0.0434,
大田 (Ota),2014-07-30,10:01～11:00,0.0457,0.0408,0.0433,
大田 (Ota),2014-07-30,09:01～10:00,0.0471,0.0391,0.0433,
大田 (Ota),2014-07-30,08:01～09:00,0.0470,0.0401,0.0434,
大田 (Ota),2014-07-30,07:01～08:00,0.0468,0.0395,0.0434,
大田 (Ota),2014-07-30,06:01～07:00,0.0463,0.0402,0.0431,
大田 (Ota),2014-07-30,05:01～06:00,0.0473,0.0401,0.0437,
大田 (Ota),2014-07-30,04:01～05:00,0.0466,0.0414,0.0435,
大田 (Ota),2014-07-30,03:01～04:00,0.0460,0.0405,0.0435,
大田 (Ota),2014-07-30,02:01～03:00,0.0467,0.0407,0.0434,
大田 (Ota),2014-07-30,01:01～02:00,0.0454,0.0402,0.0433,
大田 (Ota),2014-07-30,00:01～01:00,0.0472,0.0413,0.0434,
大田 (Ota),2014-07-29,23:01～24:00,0.0466,0.0404,0.0435,
大田 (Ota),2014-07-29,22:01～23:00,0.0480,0.0407,0.0434,
大田 (Ota),2014-07-29,21:01～22:00,0.0461,0.0405,0.0434,
大田 (Ota),2014-07-29,20:01～21:00,0.0478,0.0403,0.0434,
大田 (Ota),2014-07-29,19:01～20:00,0.0479,0.0409,0.0438,
大田 (Ota),2014-07-29,18:01～19:00,0.0467,0.0408,0.0442,
大田 (Ota),2014-07-29,17:01～18:00,0.0463,0.0408,0.0436,
大田 (Ota),2014-07-29,16:01～17:00,0.0469,0.0399,0.0437,
大田 (Ota),2014-07-29,15:01～16:00,0.0478,0.0405,0.0434,
大田 (Ota),2014-07-29,14:01～15:00,0.0479,0.0396,0.0438,
大田 (Ota),2014-07-29,13:01～14:00,0.0470,0.0408,0.0436,
大田 (Ota),2014-07-29,12:01～13:00,0.0463,0.0411,0.0433,
大田 (Ota),2014-07-29,11:01～12:00,0.0458,0.0400,0.0432,
大田 (Ota),2014-07-29,10:01～11:00,0.0465,0.0408,0.0434,
大田 (Ota),2014-07-29,09:01～10:00,0.0464,0.0397,0.0430,
大田 (Ota),2014-07-29,08:01～09:00,0.0460,0.0405,0.0434,
大田 (Ota),2014-07-29,07:01～08:00,0.0472,0.0401,0.0432,
大田 (Ota),2014-07-29,06:01～07:00,0.0456,0.0399,0.0431,
大田 (Ota),2014-07-29,05:01～06:00,0.0459,0.0402,0.0432,
大田 (Ota),2014-07-29,04:01～05:00,0.0468,0.0402,0.0435,
大田 (Ota),2014-07-29,03:01～04:00,0.0464,0.0402,0.0432,
大田 (Ota),2014-07-29,02:01～03:00,0.0460,0.0408,0.0433,
大田 (Ota),2014-07-29,01:01～02:00,0.0466,0.0399,0.0433,
大田 (Ota),2014-07-29,00:01～01:00,0.0471,0.0404,0.0435,
大田 (Ota),2014-07-28,23:01～24:00,0.0465,0.0395,0.0435,
大田 (Ota),2014-07-28,22:01～23:00,0.0454,0.0410,0.0432,
大田 (Ota),2014-07-28,21:01～22:00,0.0462,0.0406,0.0432,
大田 (Ota),2014-07-28,20:01～21:00,0.0466,0.0406,0.0433,
大田 (Ota),2014-07-28,19:01～20:00,0.0481,0.0409,0.0438,
大田 (Ota),2014-07-28,18:01～19:00,0.0469,0.0408,0.0435,
大田 (Ota),2014-07-28,17:01～18:00,0.0468,0.0403,0.0432,
大田 (Ota),2014-07-28,16:01～17:00,0.0477,0.0399,0.0432,
大田 (Ota),2014-07-28,15:01～16:00,0.0466,0.0404,0.0432,
大田 (Ota),2014-07-28,14:01～15:00,0.0459,0.0401,0.0431,
大田 (Ota),2014-07-28,13:01～14:00,0.0465,0.0396,0.0431,
大田 (Ota),2014-07-28,12:01～13:00,0.0465,0.0411,0.0431,
大田 (Ota),2014-07-28,11:01～12:00,0.0464,0.0384,0.0428,
大田 (Ota),2014-07-28,10:01～11:00,0.0470,0.0388,0.0431,
大田 (Ota),2014-07-28,09:01～10:00,0.0454,0.0397,0.0429,
大田 (Ota),2014-07-28,08:01～09:00,0.0455,0.0399,0.0431,
大田 (Ota),2014-07-28,07:01～08:00,0.0464,0.0399,0.0432,
大田 (Ota),2014-07-28,06:01～07:00,0.0462,0.0397,0.0431,
大田 (Ota),2014-07-28,05:01～06:00,0.0468,0.0401,0.0430,
大田 (Ota),2014-07-28,04:01～05:00,0.0460,0.0397,0.0432,
大田 (Ota),2014-07-28,03:01～04:00,0.0463,0.0408,0.0432,
大田 (Ota),2014-07-28,02:01～03:00,0.0468,0.0406,0.0430,
大田 (Ota),2014-07-28,01:01～02:00,0.0480,0.0399,0.0431,
大田 (Ota),2014-07-28,00:01～01:00,0.0471,0.0405,0.0433,
